Temperature
19 19 18 18 18 18 18 18 17 17 17 17 16 16 16 16 16 16 16 16 15 15 15 15 15 15 15 15 14 14 14 14 14 14 14 14 14 14 13 13 13 13 13
19 19 18 18 18 18 18 18 17 17 17 17 17 16 16 16 16 16 16 15 15 15 15 15 15 15 15 14 14 14 14 14 14 14 13 13 13 13 13 13 13 13 13
19 19 18 18 18 18 18 18 17 17 17 17 17 16 16 16 16 16 16 15 15 15 15 15 15 15 15 14 14 14 14 14 14 14 13 13 13 13 13 13 13 13 13
19 19 18 18 18 18 18 18 17 17 17 17 16 16 16 16 16 16 16 15 15 15 15 15 15 15 14 14 14 14 14 13 13 13 13 13 13 13 13 13 13 13 13
18 18 18 18 18 18 18 18 17 17 17 17 16 16 16 16 16 15 15 15 15 15 15 15 14 14 14 14 14 14 14 13 13 13 13 13 13 13 13 12 13 13 13
18 18 18 18 18 18 18 17 17 17 17 16 16 16 16 16 16 15 15 15 15 15 15 15 14 14 14 14 14 14 14 13 13 13 13 13 13 13 13 12 12 12 13
18 18 18 18 18 18 17 17 17 17 16 16 16 16 16 16 15 15 15 15 15 15 15 14 14 14 14 14 14 14 14 13 13 13 13 13 13 13 13 13 12 12 12
17 17 18 18 18 17 17 17 17 17 16 16 16 16 15 15 15 15 15 15 15 15 14 14 14 14 14 14 14 14 14 13 13 13 13 13 13 12 12 12 12 12 12
17 17 17 17 17 17 17 17 17 16 16 16 16 16 15 15 15 15 14 14 14 14 14 14 14 14 14 14 13 13 13 13 13 13 13 12 12 12 12 12 12 12 12
17 17 17 17 17 17 16 16 16 16 16 15 15 15 15 15 15 14 14 14 14 14 14 14 14 14 13 13 13 13 13 13 13 13 13 12 12 12 12 12 12 12 12
16 16 17 16 16 16 16 16 16 16 15 15 15 15 15 15 14 14 14 14 14 14 14 14 14 13 13 13 13 13 13 13 13 13 13 12 12 12 12 12 12 12 12
16 16 16 16 16 16 16 15 15 15 15 15 15 15 14 14 14 14 14 14 13 13 13 13 13 13 13 13 13 13 13 13 13 13 12 12 12 12 12 12 12 12 12
15 15 15 15 15 15 15 15 15 15 15 14 14 14 14 14 14 14 14 14 13 13 13 13 13 13 13 12 12 12 12 12 12 12 12 12 12 12 12 12 12 12 12
15 15 15 15 15 15 15 15 14 14 14 14 14 14 14 14 13 13 13 13 13 13 13 13 13 12 12 12 12 12 12 12 12 12 12 12 12 12 12 12 11 11 11
14 15 14 14 14 14 14 14 14 14 14 13 13 13 13 13 13 13 13 13 13 13 12 12 12 12 12 12 12 12 12 12 12 12 12 12 12 12 11 11 11 11 11
14 14 14 14 14 14 14 14 14 13 13 13 13 13 13 13 13 13 13 12 12 12 12 12 12 11 11 11 11 11 11 11 11 11 11 11 11 11 11 11 11 11 11
13 13 13 14 13 13 13 13 13 13 13 13 13 12 12 12 12 12 12 12 12 12 12 11 11 11 11 11 11 11 11 11 11 11 11 11 11 11 11 11 11 11 11
13 13 13 13 13 13 13 12 12 12 12 12 12 12 12 12 12 12 12 12 11 11 11 11 11 11 11 10 10 10 10 10 10 11 11 10 11 10 10 10 10 10 10
12 12 12 12 12 12 12 12 12 12 12 12 12 12 12 11 11 11 11 11 11 11 11 11 10 10 10 10 10 10 10 10 10 10 10 10 10 10 10 10 10 10 10
12 12 12 12 12 12 11 11 11 11 11 11 11 11 11 11 11 11 11 11 11 11 10 10 10 10 10 10 10 10 10 10 10 10 10 10 9 9 9 10 10 10 10
11 11 11 11 11 11 11 11 11 11 11 11 11 11 11 10 11 11 11 10 10 10 10 10 10 10 10 9 9 9 9 9 9 9 9 9 9 9 9 9 9 9 9
11 11 11 11 10 10 10 10 10 10 10 10 10 10 10 10 10 10 10 10 10 10 10 10 10 10 9 9 9 9 9 9 9 9 9 9 9 9 9 8 8 8 8
10 10 10 10 10 10 10 10 10 10 9 10 10 10 9 9 9 9 10 9 9 9 9 9 9 9 9 9 9 9 8 8 8 8 8 8 8 8 8 8 8 8 8
10 10 10 10 10 10 9 9 9 9 9 9 9 9 9 9 9 9 9 9 9 9 8 8 8 9 9 9 8 8 8 8 8 8 8 8 8 8 7 7 7 7 7
9 9 9 9 9 9 9 9 9 9 9 9 9 8 8 8 8 8 8 8 8 8 8 8 8 8 8 8 8 8 8 8 7 7 7 7 7 7 7 7 7 7 7
9 9 9 9 9 9 8 8 8 8 8 8 8 8 8 8 8 8 8 8 8 7 7 7 7 7 8 8 7 7 7 7 7 7 7 7 7 6 6 6 6 6 6
Wind_Speed
5 3 3 3 3 3 3 3 3 3 4 2 2 2 1 1 1 1 2 3 3 3 3 3 2 2 2 2 3 2 3 2 2 3 3 4 3 3 3 3 3 5 6
3 3 4 3 4 4 4 4 4 3 3 3 2 2 2 1 1 1 2 2 3 3 3 3 2 2 2 2 2 3 2 1 2 2 2 2 4 3 3 3 2 3 4
6 4 5 5 4 5 5 5 4 3 3 3 3 3 3 2 2 1 1 1 2 2 3 3 3 2 2 2 2 2 3 1 1 2 2 2 1 2 3 3 2 3 3
5 5 5 5 5 6 4 4 4 3 3 3 4 4 3 2 2 1 1 1 2 2 3 3 3 2 2 2 2 2 2 3 1 1 1 1 2 1 2 3 3 3 2
6 6 6 6 5 4 4 4 3 3 2 3 4 4 3 2 1 1 1 1 1 1 2 3 3 2 2 2 2 2 2 2 2 2 1 1 2 1 1 2 3 3 2
5 4 4 3 3 3 3 3 4 3 3 3 3 4 3 3 3 2 1 1 0 0 1 2 2 2 2 2 2 2 2 2 2 2 2 2 2 1 2 2 2 3 3
4 4 3 4 3 4 3 3 4 3 3 4 4 4 4 4 4 3 3 2 1 1 2 2 2 2 2 2 2 2 2 3 3 3 2 2 2 2 2 2 1 2 3
3 4 5 5 4 4 4 4 4 4 3 4 3 3 3 2 2 3 3 3 2 3 2 2 2 2 2 2 2 2 2 2 3 3 3 2 2 2 2 3 2 0 2
1 2 3 4 3 4 4 4 4 3 3 4 3 2 3 3 2 3 3 2 2 2 2 2 2 2 2 2 2 2 2 2 3 3 3 2 2 2 2 2 3 3 2
1 0 1 2 3 3 3 3 3 4 3 3 3 3 3 3 2 2 3 3 3 2 2 2 2 2 2 2 2 2 2 2 3 3 3 3 2 2 2 2 2 3 3
1 0 1 2 2 2 2 3 2 2 2 3 3 3 2 2 2 3 4 4 3 2 3 3 2 2 2 2 2 3 2 3 3 3 3 4 3 3 2 2 2 3 3
1 0 0 1 2 2 2 2 2 2 3 3 3 3 2 2 2 3 4 3 3 3 3 3 2 3 3 3 3 3 3 4 4 4 4 4 3 3 3 3 4 3 3
2 2 2 1 1 2 2 3 3 3 2 2 2 2 3 3 3 3 4 4 4 3 2 2 3 3 3 3 3 4 4 4 5 5 5 5 4 4 4 4 4 3 3
2 1 1 1 2 2 2 2 3 3 2 2 2 3 4 4 4 4 3 4 4 3 3 3 4 4 3 3 3 3 3 4 4 5 5 5 6 6 5 5 5 4 3
2 2 2 2 2 2 2 2 2 2 3 2 3 4 5 4 4 3 4 4 4 4 4 3 3 3 3 3 3 4 4 4 3 3 4 5 6 6 5 4 4 5 4
3 3 3 3 3 3 3 3 3 3 3 3 4 4 3 3 4 4 4 4 4 4 3 3 3 3 4 4 5 4 3 3 3 4 4 5 6 7 7 7 6 6 6
3 3 3 4 4 4 3 3 4 3 3 3 4 4 4 4 4 4 4 5 5 4 4 4 4 5 6 6 6 6 4 4 4 4 4 4 4 5 4 5 5 6 7
4 4 4 4 4 3 3 2 2 2 3 3 4 4 4 5 4 4 5 5 4 4 5 5 5 5 6 7 7 7 5 4 5 5 5 5 4 4 3 3 3 4 5
3 4 4 4 3 3 2 1 2 2 2 4 5 5 5 5 5 5 6 5 4 5 5 4 5 5 6 8 8 6 3 4 5 5 4 5 5 6 4 4 4 3 3
3 3 3 3 3 3 2 1 2 2 3 4 5 5 5 5 6 6 5 4 4 6 5 5 5 5 6 7 8 7 4 4 4 3 3 5 5 6 5 4 5 5 4
4 3 3 3 3 3 1 2 2 3 5 4 3 3 4 5 5 4 4 4 4 4 5 5 5 5 6 6 7 7 5 5 4 3 3 4 5 6 6 5 5 7 4
3 3 2 3 3 3 2 3 4 5 4 3 2 3 3 3 2 3 3 3 3 4 4 4 4 4 4 5 6 6 6 5 4 4 3 3 4 4 5 4 5 5 4
4 2 1 3 3 3 2 3 5 4 4 3 3 3 3 2 1 2 2 2 2 3 4 4 4 4 3 4 5 5 5 5 4 3 4 3 3 2 2 2 3 2 3
4 3 2 3 4 4 3 3 4 3 2 3 3 2 2 2 2 1 1 2 2 3 3 4 4 4 3 3 2 2 3 3 3 2 2 2 1 1 1 1 1 1 3
4 2 2 3 4 4 4 4 3 3 3 3 3 2 1 2 2 2 2 2 3 4 4 4 4 4 5 5 5 4 3 3 3 3 1 1 0 0 0 0 1 1 1
3 3 3 3 4 4 4 4 3 2 2 2 3 2 1 1 1 2 3 4 3 5 5 5 5 5 6 5 5 5 4 4 6 4 2 2 2 2 2 2 1 1 1
Wind_Direction
231 199 191 177 144 137 136 141 144 151 140 137 143 134 141 139 78 94 107 117 118 121 117 112 102 97 100 106 104 97 81 58 60 64 29 15 26 39 25 25 32 28 29
218 195 186 176 173 173 167 164 169 157 162 162 156 151 145 138 136 51 79 101 116 123 127 126 128 117 108 97 98 102 101 72 61 95 80 14 358 4 15 18 24 13 22
203 202 191 193 185 187 185 184 183 173 168 143 114 92 73 57 51 36 27 52 119 124 124 133 133 135 137 144 143 129 123 133 48 68 118 123 246 316 340 357 6 2 9
205 204 199 199 200 202 188 178 177 173 173 148 143 145 155 174 202 193 184 76 100 120 131 135 135 141 141 148 167 145 141 145 144 60 53 131 158 151 323 332 343 347 349
204 203 207 207 204 194 181 174 163 164 165 160 156 159 164 178 157 116 107 84 63 100 125 136 134 145 155 165 159 148 157 162 164 160 134 84 63 107 161 293 321 334 322
209 202 199 189 179 167 165 160 153 161 155 155 155 156 159 155 134 136 148 176 157 83 140 148 151 160 173 182 183 175 176 177 167 168 160 157 160 183 169 219 283 301 307
197 189 185 185 178 170 168 157 156 169 170 163 166 171 167 168 173 178 183 184 191 229 225 181 180 188 197 185 174 175 188 186 184 189 195 191 196 172 165 165 224 287 303
194 196 196 185 182 181 175 162 165 176 171 171 181 179 169 171 190 186 179 186 203 217 209 185 188 193 185 183 178 190 206 197 203 207 199 199 210 186 178 171 162 281 311
203 198 187 180 177 177 185 182 179 181 188 187 179 173 174 176 195 198 187 195 214 214 191 178 187 195 181 176 175 206 217 204 209 213 207 212 220 202 197 182 174 169 228
9 96 182 187 175 182 185 177 181 184 192 186 188 193 198 201 202 194 199 213 220 211 192 194 195 203 192 171 166 206 221 200 224 218 208 222 227 214 199 195 196 185 188
282 267 210 181 172 159 154 166 182 175 182 191 188 186 201 198 193 203 211 213 214 213 212 213 207 211 210 197 190 210 202 208 228 230 217 230 222 215 214 201 198 198 185
319 336 66 120 133 144 159 177 188 188 199 192 183 194 202 189 198 222 224 211 209 216 216 211 214 225 226 211 202 219 220 216 224 229 225 235 224 220 217 211 214 214 205
10 26 43 56 198 204 203 204 209 215 214 189 191 206 213 210 220 230 228 213 210 218 217 208 218 233 234 223 219 218 220 224 228 226 222 230 222 230 224 220 221 222 218
351 15 356 329 297 264 240 225 232 228 210 192 200 220 226 223 226 229 227 216 212 213 218 221 227 231 232 226 220 216 218 228 239 237 230 228 219 227 223 222 220 210 198
330 334 324 317 316 314 296 264 249 244 220 207 220 236 235 230 226 227 229 221 217 223 218 219 231 236 232 233 225 214 218 224 242 253 247 240 234 229 223 227 215 197 192
301 306 315 314 305 293 286 276 254 245 223 222 236 246 241 236 232 231 227 217 219 223 215 217 221 232 246 254 235 212 215 225 234 252 262 259 244 243 236 237 222 200 195
300 296 289 280 279 278 268 261 256 245 224 229 242 246 243 241 237 236 224 220 224 222 223 226 225 237 246 247 240 229 214 219 226 235 248 262 260 245 234 241 232 223 217
313 308 302 297 294 295 291 269 267 241 232 239 247 247 239 240 237 229 227 227 223 221 224 233 235 243 256 253 246 238 220 227 235 235 233 241 256 251 231 222 232 240 235
296 299 297 292 300 308 301 278 301 278 254 253 251 249 241 237 232 229 232 231 221 227 228 230 235 243 258 258 248 231 219 236 249 246 236 231 236 248 230 204 216 240 256
317 320 325 328 327 320 328 329 312 307 277 265 259 253 245 234 229 230 232 232 222 228 231 237 237 238 250 262 249 225 214 232 249 256 250 240 240 246 223 207 208 221 237
321 328 337 331 316 316 332 324 315 296 285 280 278 268 256 238 227 228 232 230 228 227 231 239 246 243 249 257 254 235 217 219 228 237 246 247 247 243 233 225 221 226 211
324 331 336 325 319 318 317 309 296 291 304 305 297 293 281 262 256 228 237 238 224 226 240 248 259 260 257 256 250 244 240 223 210 227 234 239 243 243 238 231 230 220 190
305 308 303 310 312 312 299 293 295 308 321 324 310 295 292 296 285 248 248 259 243 233 246 246 255 269 268 260 258 248 243 228 215 219 220 228 226 233 233 235 231 199 181
304 311 314 309 310 314 310 293 300 315 322 319 308 293 299 312 316 307 271 259 253 249 250 252 255 265 270 262 257 247 250 231 214 205 193 180 166 191 224 271 245 193 189
302 302 287 285 293 306 312 315 319 329 327 317 311 298 294 291 308 309 291 272 259 257 255 255 252 251 259 253 232 214 225 220 196 159 127 110 136 219 301 301 253 218 194
295 294 294 294 296 302 307 311 311 310 310 309 311 302 296 293 294 303 326 323 303 299 293 277 267 263 253 255 226 217 213 197 169 151 168 189 197 208 215 217 234 234 224
Height
1524 1526 1527 1529 1529 1530 1530 1531 1532 1533 1534 1535 1535 1536 1536 1537 1538 1538 1539 1539 1539 1540 1539 1539 1540 1540 1539 1539 1539 1539 1539 1538 1538 1538 1538 1538 1538 1538 1537 1537 1537 1537 1536
1522 1524 1526 1527 1528 1529 1530 1530 1532 1533 1533 1534 1535 1536 1536 1537 1537 1538 1538 1539 1539 1539 1539 1539 1539 1539 1539 1539 1539 1539 1538 1538 1538 1538 1537 1537 1539 1538 1537 1537 1537 1537 1536
1520 1522 1523 1525 1526 1528 1529 1530 1531 1532 1533 1534 1535 1535 1536 1536 1537 1537 1537 1538 1538 1538 1539 1538 1538 1538 1538 1538 1538 1538 1538 1538 1538 1538 1538 1538 1538 1537 1537 1537 1537 1536 1536
1518 1520 1522 1523 1525 1526 1528 1529 1530 1531 1532 1533 1533 1534 1534 1534 1535 1536 1536 1537 1537 1537 1537 1537 1537 1537 1537 1537 1537 1537 1537 1537 1537 1538 1538 1538 1538 1538 1537 1537 1536 1536 1535
1516 1517 1520 1521 1523 1525 1527 1528 1529 1530 1531 1532 1532 1533 1533 1534 1534 1535 1535 1536 1536 1536 1536 1536 1536 1536 1536 1536 1536 1536 1536 1536 1536 1536 1536 1537 1537 1537 1536 1535 1535 1534 1534
1513 1515 1518 1520 1521 1523 1525 1526 1527 1528 1529 1530 1531 1531 1532 1532 1533 1533 1534 1534 1534 1534 1534 1535 1535 1535 1534 1534 1534 1534 1534 1534 1535 1535 1535 1535 1535 1535 1535 1534 1533 1533 1533
1511 1513 1515 1517 1519 1521 1522 1524 1525 1526 1527 1528 1529 1529 1530 1530 1531 1531 1532 1532 1532 1532 1532 1532 1533 1533 1533 1533 1532 1532 1532 1533 1533 1533 1533 1534 1534 1534 1534 1533 1532 1531 1531
1510 1511 1512 1514 1517 1519 1520 1521 1523 1524 1525 1526 1526 1527 1528 1528 1529 1529 1530 1530 1530 1530 1530 1530 1530 1530 1530 1530 1530 1530 1530 1530 1530 1531 1531 1531 1532 1532 1532 1532 1531 1530 1530
1508 1509 1510 1512 1514 1516 1518 1519 1521 1522 1523 1523 1524 1525 1525 1526 1526 1527 1527 1528 1528 1528 1528 1528 1528 1528 1528 1528 1528 1528 1528 1528 1528 1528 1528 1529 1529 1529 1530 1530 1530 1530 1528
1507 1508 1509 1510 1512 1514 1516 1517 1518 1519 1520 1521 1522 1522 1522 1523 1523 1524 1524 1525 1525 1525 1525 1525 1525 1525 1525 1525 1525 1525 1525 1525 1525 1525 1526 1526 1526 1527 1527 1527 1527 1527 1527
1507 1507 1507 1508 1510 1512 1513 1515 1515 1516 1517 1518 1519 1519 1519 1520 1520 1520 1521 1521 1522 1522 1522 1522 1521 1521 1521 1521 1522 1522 1522 1522 1522 1522 1522 1523 1523 1523 1524 1524 1524 1525 1525
1507 1506 1507 1507 1508 1509 1511 1512 1512 1513 1514 1515 1515 1516 1516 1516 1516 1517 1517 1518 1518 1518 1518 1518 1518 1518 1518 1518 1518 1518 1518 1518 1518 1518 1518 1519 1519 1520 1520 1521 1521 1521 1522
1506 1506 1506 1506 1507 1507 1508 1509 1509 1510 1511 1511 1512 1512 1512 1512 1513 1513 1514 1514 1514 1515 1515 1515 1515 1514 1514 1514 1514 1514 1514 1514 1514 1514 1515 1515 1515 1516 1516 1517 1517 1518 1518
1505 1505 1505 1504 1505 1505 1505 1506 1506 1507 1507 1508 1508 1508 1508 1509 1509 1510 1510 1510 1511 1511 1511 1511 1511 1511 1511 1510 1510 1510 1510 1510 1510 1511 1511 1511 1511 1512 1512 1512 1513 1513 1514
1504 1504 1503 1503 1502 1502 1502 1502 1502 1503 1503 1504 1504 1504 1504 1505 1505 1505 1506 1506 1506 1506 1507 1507 1507 1507 1506 1506 1506 1506 1506 1506 1506 1506 1506 1507 1507 1508 1508 1509 1509 1509 1510
1503 1503 1502 1501 1500 1499 1499 1498 1498 1499 1499 1500 1500 1500 1500 1500 1500 1501 1501 1502 1502 1502 1502 1502 1502 1502 1502 1502 1502 1502 1502 1501 1501 1502 1502 1502 1503 1503 1504 1504 1505 1505 1505
1502 1501 1500 1499 1498 1496 1495 1495 1495 1495 1495 1495 1496 1496 1496 1495 1495 1496 1496 1497 1497 1497 1497 1497 1497 1497 1497 1497 1497 1497 1497 1497 1497 1497 1497 1498 1498 1499 1499 1500 1500 1500 1501
1499 1498 1497 1496 1495 1494 1492 1492 1491 1491 1491 1491 1491 1491 1491 1490 1491 1491 1491 1492 1492 1493 1493 1493 1493 1492 1492 1492 1492 1493 1493 1493 1493 1493 1493 1493 1494 1494 1494 1495 1495 1496 1496
1498 1497 1495 1494 1492 1491 1490 1488 1488 1487 1487 1486 1486 1486 1486 1485 1485 1485 1486 1487 1487 1487 1488 1488 1488 1487 1487 1488 1488 1488 1488 1487 1488 1488 1488 1489 1489 1490 1490 1490 1490 1491 1492
1496 1495 1493 1491 1490 1488 1487 1486 1484 1484 1483 1482 1482 1481 1481 1480 1480 1481 1481 1482 1482 1482 1483 1483 1483 1482 1482 1482 1483 1483 1482 1482 1482 1483 1483 1484 1484 1485 1485 1485 1486 1486 1487
1494 1492 1491 1489 1487 1486 1485 1483 1481 1480 1480 1479 1478 1477 1476 1476 1476 1476 1477 1477 1478 1478 1477 1477 1478 1478 1477 1477 1477 1478 1478 1477 1477 1477 1477 1478 1479 1480 1480 1480 1481 1481 1483
1491 1490 1488 1486 1485 1484 1483 1481 1479 1478 1477 1475 1474 1473 1472 1472 1472 1472 1472 1473 1473 1473 1472 1472 1472 1472 1472 1472 1472 1473 1473 1472 1472 1472 1473 1473 1474 1475 1475 1476 1476 1477 1478
1489 1487 1486 1484 1483 1482 1480 1479 1477 1475 1473 1472 1471 1470 1469 1468 1468 1468 1468 1468 1468 1468 1467 1467 1467 1467 1467 1467 1468 1468 1468 1467 1467 1467 1468 1469 1469 1470 1470 1471 1472 1472 1472
1486 1485 1483 1482 1480 1479 1478 1477 1475 1473 1471 1469 1468 1467 1466 1465 1465 1465 1465 1465 1464 1464 1463 1463 1462 1462 1462 1462 1462 1462 1463 1462 1462 1463 1463 1464 1464 1465 1465 1466 1467 1467 1468
1484 1482 1481 1479 1478 1477 1476 1474 1472 1470 1468 1467 1465 1464 1463 1463 1462 1462 1462 1461 1461 1461 1460 1459 1458 1458 1457 1457 1457 1457 1457 1457 1457 1458 1459 1459 1460 1460 1461 1462 1462 1463 1464
1481 1480 1479 1477 1476 1474 1473 1471 1470 1468 1466 1464 1462 1461 1460 1459 1459 1458 1458 1458 1458 1457 1456 1456 1455 1453 1453 1453 1452 1453 1453 1453 1453 1454 1454 1454 1455 1456 1457 1457 1458 1459 1460